Port Heiden, AK

11:38 AM AKDT on April 27, 2017 (GMT -0800)
Port Heiden

Weather History for PAPH - February, 2014

Change the Weather History Date:

Tuesday, February 25, 2014

  Actual Average Record
Temperature  
Mean Temperature 35 °F -  
Max Temperature 42 °F 31 °F 46 °F (2003)
Min Temperature 28 °F 21 °F 1 °F (2008)
Degree Days  
Heating Degree Days 30    
Moisture  
Dew Point 26 °F    
Average Humidity 68    
Maximum Humidity 75    
Minimum Humidity 49    
Precipitation  
Precipitation 0.00 in - - ()
Sea Level Pressure  
Sea Level Pressure 29.60 in    
Wind  
Wind Speed 13 mph (ENE)    
Max Wind Speed 37 mph    
Max Gust Speed 55 mph    
Visibility 9 miles    
Events      
Averages and records for this station are not official NWS values.
T = Trace of Precipitation, MM = Missing Value Source: NWS Daily Summary

Daily Weather History Graph

Daily Weather History Graph

Search for Another Location

Airport or City:

Trip Planner

Search our weather history database for the weather conditions in past years. The results will help you decide how hot, cold, wet, or windy it might be!

Date:

Astronomy

Feb. 25, 2014 Rise Set
Actual Time 8:37 AM AKST 6:58 PM AKST
Civil Twilight 7:58 AM AKST 7:37 PM AKST
Nautical Twilight 7:14 AM AKST 8:21 PM AKST
Astronomical Twilight 6:30 AM AKST 9:06 PM AKST
Moon 6:15 AM AKST (2/25) 2:45 PM AKST (2/25)
Length of Visible Light 11h 39m
Length of Day
10h 21m
Waning Crescent, 17% of the Moon is Illuminated
Feb 25
Waning Crescent
Feb 28
New
Mar 8
First Quarter
Mar 16
Full
Mar 23
Last Quarter

Hourly Weather History & Observations

Time (AKST) Temp. Windchill Dew Point Humidity Pressure Visibility Wind Dir Wind Speed Gust Speed Precip Events Conditions
12:16 AM 33.8 °F 25.8 °F 26.6 °F 75% 29.75 in 10.0 mi SE 10.4 mph - N/A   Clear
12:36 AM 33.8 °F 23.2 °F 26.6 °F 75% 29.75 in 10.0 mi SE 17.3 mph - N/A   Clear
12:56 AM 33.8 °F 23.9 °F 26.6 °F 75% 29.77 in 10.0 mi SE 15.0 mph - N/A   Clear
1:16 AM 33.8 °F 28.6 °F 26.6 °F 75% 29.78 in 10.0 mi East 5.8 mph - N/A   Clear
1:36 AM 33.8 °F 25.8 °F 24.8 °F 70% 29.79 in 10.0 mi ESE 10.4 mph - N/A   Clear
1:56 AM 33.8 °F 26.4 °F 24.8 °F 70% 29.79 in 10.0 mi East 9.2 mph - N/A   Clear
2:16 AM 33.8 °F 27.0 °F 24.8 °F 70% 29.80 in 10.0 mi East 8.1 mph - N/A   Clear
2:36 AM 33.8 °F 27.7 °F 24.8 °F 70% 29.80 in 10.0 mi East 6.9 mph - N/A   Clear
2:56 AM 33.8 °F 27.0 °F 24.8 °F 70% 29.80 in 10.0 mi SE 8.1 mph - N/A   Clear
3:16 AM 30.2 °F 20.8 °F 21.2 °F 69% 29.80 in 10.0 mi East 11.5 mph - N/A   Clear
3:36 AM 35.6 °F 28.0 °F 23.0 °F 60% 29.80 in 10.0 mi SE 10.4 mph - N/A   Clear
3:56 AM 35.6 °F 29.2 °F 23.0 °F 60% 29.80 in 10.0 mi ESE 8.1 mph - N/A   Clear
4:16 AM 33.8 °F 26.4 °F 23.0 °F 65% 29.79 in 10.0 mi SE 9.2 mph - N/A   Clear
4:36 AM 33.8 °F 25.8 °F 23.0 °F 65% 29.79 in 10.0 mi SSE 10.4 mph - N/A   Clear
4:56 AM 33.8 °F 28.6 °F 23.0 °F 65% 29.79 in 10.0 mi ESE 5.8 mph - N/A   Clear
5:16 AM 33.8 °F 26.4 °F 24.8 °F 70% 29.78 in 10.0 mi SSE 9.2 mph - N/A   Clear
5:36 AM 33.8 °F 24.3 °F 24.8 °F 70% 29.77 in 10.0 mi SSE 13.8 mph - N/A   Clear
5:56 AM 32.0 °F 24.8 °F 24.8 °F 75% 29.78 in 10.0 mi East 8.1 mph - N/A   Clear
6:16 AM 28.4 °F 20.4 °F 21.2 °F 74% 29.78 in 10.0 mi ENE 8.1 mph - N/A   Clear
6:36 AM 30.2 °F 23.4 °F 21.2 °F 69% 29.78 in 10.0 mi ENE 6.9 mph - N/A   Clear
6:56 AM 32.0 °F 24.2 °F 23.0 °F 69% 29.77 in 10.0 mi NNE 9.2 mph - N/A   Clear
7:16 AM 30.2 °F 23.4 °F 21.2 °F 69% 29.76 in 10.0 mi NNW 6.9 mph - N/A   Clear
7:36 AM 33.8 °F 29.6 °F 24.8 °F 70% 29.76 in 10.0 mi North 4.6 mph - N/A   Clear
7:56 AM 33.8 °F 30.8 °F 24.8 °F 70% 29.76 in 10.0 mi East 3.5 mph - N/A   Clear
8:16 AM 30.2 °F 26.7 °F 21.2 °F 69% 29.76 in 10.0 mi SSW 3.5 mph - N/A   Partly Cloudy
8:36 AM 32.0 °F - 23.0 °F 69% 29.75 in 10.0 mi Calm Calm - N/A   Partly Cloudy
8:56 AM 33.8 °F 26.4 °F 23.0 °F 65% 29.75 in 10.0 mi NNE 9.2 mph - N/A   Scattered Clouds
9:16 AM 33.8 °F 27.0 °F 24.8 °F 70% 29.74 in 10.0 mi North 8.1 mph - N/A   Overcast
9:36 AM 33.8 °F 25.8 °F 24.8 °F 70% 29.74 in 10.0 mi North 10.4 mph - N/A   Overcast
9:56 AM 35.6 °F 28.6 °F 24.8 °F 65% 29.73 in 10.0 mi North 9.2 mph - N/A   Overcast
10:16 AM 35.6 °F 27.1 °F 24.8 °F 65% 29.72 in 10.0 mi NNE 12.7 mph - N/A   Overcast
10:36 AM 35.6 °F 28.0 °F 26.6 °F 70% 29.71 in 10.0 mi NNE 10.4 mph - N/A   Mostly Cloudy
10:56 AM 33.8 °F 26.4 °F 26.6 °F 75% 29.71 in 10.0 mi NNE 9.2 mph - N/A   Scattered Clouds
11:16 AM 35.6 °F 30.7 °F 26.6 °F 70% 29.70 in 10.0 mi East 5.8 mph - N/A   Mostly Cloudy
11:36 AM 35.6 °F 29.9 °F 26.6 °F 70% 29.69 in 10.0 mi ENE 6.9 mph - N/A   Overcast
11:56 AM 35.6 °F 27.1 °F 28.4 °F 75% 29.68 in 10.0 mi NNE 12.7 mph - N/A   Overcast
12:16 PM 35.6 °F 27.1 °F 28.4 °F 75% 29.68 in 10.0 mi NE 12.7 mph - N/A   Overcast
12:36 PM 35.6 °F 27.1 °F 28.4 °F 75% 29.66 in 10.0 mi NNE 12.7 mph - N/A   Overcast
12:56 PM 35.6 °F 28.6 °F 28.4 °F 75% 29.65 in 10.0 mi NNE 9.2 mph - N/A   Overcast
1:16 PM 37.4 °F 31.4 °F 30.2 °F 75% 29.63 in 10.0 mi North 8.1 mph - N/A   Mostly Cloudy
1:36 PM 37.4 °F 29.3 °F 30.2 °F 75% 29.61 in 10.0 mi NE 12.7 mph - N/A   Scattered Clouds
1:56 PM 39.2 °F 30.8 °F 30.2 °F 70% 29.59 in 10.0 mi ENE 15.0 mph 19.6 mph N/A   Partly Cloudy
2:16 PM 39.2 °F 30.2 °F 30.2 °F 70% 29.57 in 10.0 mi ENE 17.3 mph 26.5 mph N/A   Mostly Cloudy
2:36 PM 39.2 °F 27.6 °F 28.4 °F 65% 29.54 in 10.0 mi NE 28.8 mph 32.2 mph N/A   Overcast
2:56 PM 39.2 °F 27.6 °F 26.6 °F 61% 29.51 in 10.0 mi NE 28.8 mph 39.1 mph N/A   Overcast
3:16 PM 37.4 °F 24.6 °F 26.6 °F 65% 29.51 in 10.0 mi NE 32.2 mph 38.0 mph N/A   Overcast
3:36 PM 37.4 °F 25.0 °F 24.8 °F 60% 29.50 in 10.0 mi ENE 29.9 mph 39.1 mph N/A   Overcast
3:56 PM 37.4 °F 24.4 °F 24.8 °F 60% 29.48 in 10.0 mi ENE 33.4 mph 41.4 mph N/A   Overcast
4:16 PM 35.6 °F 21.5 °F 24.8 °F 65% 29.47 in 10.0 mi ENE 35.7 mph 42.6 mph N/A   Overcast
4:36 PM 33.8 °F 20.8 °F 24.8 °F 70% 29.46 in 2.0 mi ENE 26.5 mph 39.1 mph N/A   Overcast
4:56 PM 33.8 °F 21.3 °F 24.8 °F 70% 29.46 in 2.5 mi ENE 24.2 mph 29.9 mph N/A   Overcast
5:16 PM 33.8 °F 22.5 °F 26.6 °F 75% 29.45 in 2.5 mi ENE 19.6 mph 28.8 mph N/A   Mostly Cloudy
5:36 PM 33.8 °F 22.5 °F 26.6 °F 75% 29.43 in 2.5 mi NE 19.6 mph 25.3 mph N/A   Overcast
5:56 PM 33.8 °F 22.5 °F 26.6 °F 75% 29.42 in 2.0 mi NE 19.6 mph 24.2 mph N/A   Overcast
6:16 PM 33.8 °F 22.8 °F 26.6 °F 75% 29.41 in 3.0 mi NE 18.4 mph 24.2 mph N/A   Mostly Cloudy
6:36 PM 33.8 °F 22.2 °F 26.6 °F 75% 29.39 in 4.0 mi NE 20.7 mph 24.2 mph N/A   Overcast
6:56 PM 33.8 °F 23.2 °F 26.6 °F 75% 29.38 in 10.0 mi NE 17.3 mph - N/A   Overcast
7:16 PM 33.8 °F 21.6 °F 26.6 °F 75% 29.37 in 10.0 mi ENE 23.0 mph - N/A   Overcast
7:36 PM 33.8 °F 20.5 °F 26.6 °F 75% 29.36 in 10.0 mi ENE 27.6 mph 31.1 mph N/A   Mostly Cloudy
7:56 PM 33.8 °F 20.3 °F 26.6 °F 75% 29.34 in 10.0 mi East 28.8 mph 32.2 mph N/A   Overcast
8:16 PM 33.8 °F 20.3 °F 26.6 °F 75% 29.32 in 10.0 mi East 28.8 mph 34.5 mph N/A   Mostly Cloudy
8:36 PM 37.4 °F 24.8 °F 28.4 °F 70% 29.30 in 10.0 mi East 31.1 mph 41.4 mph N/A   Scattered Clouds
8:56 PM 41.0 °F 28.8 °F 28.4 °F 61% 29.28 in 10.0 mi East 36.8 mph 55.2 mph N/A   Scattered Clouds
9:16 PM 41.0 °F 29.3 °F 28.4 °F 61% 29.29 in 10.0 mi East 33.4 mph 50.6 mph N/A   Scattered Clouds
9:36 PM 41.0 °F 30.7 °F 28.4 °F 61% 29.31 in 10.0 mi ENE 25.3 mph 48.3 mph N/A   Overcast
9:56 PM 42.8 °F 34.0 °F 28.4 °F 57% 29.31 in 10.0 mi ENE 20.7 mph 33.4 mph N/A   Overcast
10:16 PM 42.8 °F 33.8 °F 28.4 °F 57% 29.31 in 10.0 mi North 21.9 mph 36.8 mph N/A   Overcast
10:36 PM 42.8 °F 35.8 °F 28.4 °F 57% 29.31 in 10.0 mi NNE 13.8 mph 31.1 mph N/A   Overcast
10:56 PM 42.8 °F 33.3 °F 28.4 °F 57% 29.30 in 10.0 mi North 24.2 mph 31.1 mph N/A   Overcast
11:16 PM 41.0 °F 34.7 °F 28.4 °F 61% 29.30 in 10.0 mi NE 10.4 mph 32.2 mph N/A   Overcast
11:36 PM 42.8 °F 34.3 °F 28.4 °F 57% 29.28 in 10.0 mi North 19.6 mph 28.8 mph N/A   Overcast
11:56 PM 42.8 °F 34.8 °F 28.4 °F 57% 29.28 in 10.0 mi North 17.3 mph 23.0 mph N/A   Overcast